Dewpoint
34 45 50 51 52 53 53 54 55 56 57 61 63 65 66 66 68 68 69 69 68 68 68 68 68 66 66 67 66 65 64 64 63 62 63 64 63 63 62 63 62 60 60
33 39 48 50 51 52 52 53 54 54 55 57 61 64 66 66 66 67 68 69 68 68 68 66 65 65 64 64 63 63 63 62 63 63 63 62 62 61 61 60 60 61 61
30 40 45 49 50 51 51 52 52 53 53 55 56 62 64 65 65 66 68 68 69 68 67 67 65 64 64 63 62 61 60 60 60 61 61 59 58 58 59 61 62 62 61
26 38 45 48 48 50 51 51 52 52 52 53 54 59 62 64 65 65 66 68 68 68 68 67 66 65 64 63 61 60 60 61 60 59 58 58 57 61 61 62 61 60 61
25 31 44 46 47 48 50 50 50 50 51 52 52 54 59 61 63 64 64 66 67 68 68 68 67 66 64 63 62 60 61 60 59 58 59 59 58 57 60 60 60 60 61
26 28 37 43 44 47 49 49 49 49 50 50 51 52 53 58 60 63 63 63 65 67 68 67 66 67 65 63 62 60 60 60 56 58 58 58 59 61 59 59 61 61 61
27 29 30 38 40 43 45 47 47 47 48 48 48 49 51 55 58 59 61 63 63 65 66 68 66 67 65 64 62 60 59 59 54 57 57 59 62 58 58 61 60 60 61
27 29 30 32 35 38 42 44 44 45 46 46 45 45 47 52 55 56 58 61 62 63 65 66 67 65 66 65 62 59 58 58 55 56 57 58 59 59 61 57 60 60 60
30 30 31 32 33 35 37 41 41 43 43 42 42 41 42 45 51 54 55 57 60 62 63 64 65 67 64 66 62 59 57 57 55 57 59 60 61 62 59 56 61 59 60
30 30 31 32 33 34 33 38 39 41 40 40 40 39 38 40 44 50 51 54 56 59 61 62 63 64 65 65 63 59 58 58 56 59 60 62 63 61 58 59 60 59 59
31 30 31 32 33 33 31 37 38 39 38 37 38 40 38 39 40 42 47 50 52 55 57 59 60 61 61 62 64 60 59 58 53 59 60 61 59 60 58 58 59 60 59
28 28 29 31 33 33 32 36 38 38 38 37 37 39 39 38 40 40 43 46 49 51 53 55 56 57 58 58 61 61 60 58 55 60 61 61 61 60 59 59 58 59 59
28 29 28 29 31 32 33 36 37 37 38 37 37 38 39 39 39 39 39 41 45 47 49 52 54 54 56 57 58 61 61 59 56 57 59 60 60 57 55 56 59 59 58
29 30 29 29 29 31 34 36 36 36 36 36 36 37 38 38 39 39 39 40 41 43 45 48 51 54 55 56 58 60 60 59 59 57 59 60 60 57 56 57 58 58 58
28 29 28 28 28 30 32 35 35 35 34 35 35 36 37 37 37 38 39 39 41 41 42 45 47 50 55 57 57 58 60 60 58 59 60 60 59 58 58 57 56 57 56
27 29 27 26 27 28 30 32 33 33 34 34 34 34 36 36 36 36 38 39 40 40 41 43 46 48 53 54 58 58 58 60 58 59 59 60 59 60 59 57 58 57 58
25 27 26 27 25 27 29 28 31 32 33 33 33 34 35 35 35 35 36 37 38 39 39 42 46 49 49 50 52 57 57 58 58 59 61 60 59 59 59 57 58 58 58
25 25 25 23 26 25 28 28 28 30 31 32 33 34 35 34 34 34 35 36 37 38 38 42 46 47 47 48 51 55 57 57 57 59 60 61 61 59 58 57 57 58 57
24 24 22 24 26 26 27 27 28 28 30 31 32 33 33 34 34 33 33 34 36 36 37 40 45 46 46 46 51 56 57 57 58 58 58 59 60 60 59 57 56 56 57
23 23 23 25 26 27 28 28 28 28 28 31 31 30 30 32 32 33 33 32 35 35 36 38 42 45 45 45 50 55 56 56 56 56 57 57 58 58 59 58 59 57 57
23 22 23 23 25 27 28 27 27 26 26 28 28 28 28 29 30 31 32 32 33 34 35 37 39 44 44 45 48 52 53 54 54 54 55 55 55 56 57 57 57 57 57
23 22 22 23 24 26 28 28 27 26 25 26 26 25 26 28 29 27 30 31 32 33 33 36 37 40 44 44 44 47 49 51 51 51 52 53 53 54 54 55 55 56 56
23 22 21 23 22 24 25 26 26 25 25 24 24 23 23 26 28 28 28 29 30 32 32 34 36 37 39 42 43 44 44 44 46 52 47 49 51 50 51 54 55 55 54
24 24 22 22 22 23 26 27 24 22 22 23 22 23 22 24 26 27 28 28 29 31 31 33 34 36 37 39 41 42 44 43 42 44 49 44 48 49 49 53 53 52 50
26 24 22 22 22 22 25 26 24 22 21 21 22 20 21 21 23 25 26 27 27 29 30 32 32 34 36 37 38 39 40 42 40 42 42 41 42 45 45 52 50 48 47
27 26 23 21 21 22 24 24 23 21 20 20 20 20 20 21 21 21 23 24 26 27 29 30 30 32 33 34 36 36 37 38 37 38 38 38 37 41 43 49 46 46 43
Wind_Speed
11 12 15 17 19 20 20 21 21 21 21 23 25 25 24 23 23 22 20 19 16 15 20 20 21 20 19 19 19 18 16 15 16 20 24 23 21 21 22 22 18 17 21
9 11 16 17 18 19 20 20 21 21 21 20 22 24 24 23 23 23 21 20 16 15 19 19 18 18 18 18 17 15 14 12 10 10 17 21 20 19 20 18 17 18 18
9 15 14 16 17 18 19 20 21 20 20 20 20 21 23 22 22 22 22 20 18 14 15 16 16 17 16 17 16 14 12 11 13 12 5 17 15 16 17 17 18 18 18
10 14 13 15 16 17 19 20 20 21 20 20 19 20 21 22 22 21 22 23 20 15 13 14 15 15 16 16 15 13 12 13 16 20 16 16 15 16 16 17 18 18 18
12 13 12 14 15 17 18 18 19 20 20 19 19 18 20 20 22 22 20 21 22 19 11 13 13 13 14 14 13 12 11 12 13 19 19 16 12 14 18 18 16 17 16
12 11 11 13 14 16 17 18 18 19 20 20 19 18 17 18 19 23 23 20 20 20 18 10 10 11 12 12 11 10 12 17 14 17 18 14 9 19 16 15 17 17 17
10 9 8 11 13 14 17 17 18 19 19 20 19 18 17 16 19 21 22 22 18 18 18 17 9 9 10 10 10 11 12 15 13 16 16 12 13 15 15 17 18 17 17
9 8 9 9 10 12 14 16 17 18 19 19 20 18 16 17 17 18 20 20 20 17 16 16 16 7 7 8 9 9 10 11 9 15 16 11 10 13 16 18 14 17 17
8 9 9 8 9 11 11 15 16 17 18 18 19 19 17 17 16 17 18 20 20 19 17 16 15 13 6 7 7 6 8 10 7 13 12 10 12 16 16 16 17 17 17
8 9 8 9 9 9 8 13 14 15 17 19 19 19 18 17 17 15 17 18 19 20 19 17 16 14 8 6 5 3 8 9 4 15 14 12 15 14 16 14 16 16 16
9 8 8 9 10 10 8 11 13 15 17 19 19 19 15 14 14 13 15 17 18 17 21 19 18 17 12 10 3 3 8 7 10 12 12 11 13 14 16 15 15 17 17
7 7 8 9 9 11 10 10 11 12 13 14 16 17 14 14 14 15 15 17 17 19 17 19 20 17 14 8 7 5 9 4 11 13 12 11 14 15 17 15 14 15 17
6 7 7 7 7 9 9 10 10 11 12 12 14 17 15 13 14 13 13 14 14 15 14 14 13 12 12 9 7 7 9 9 6 13 13 9 12 12 13 10 14 15 15
6 6 5 6 7 8 7 8 10 10 11 12 14 15 15 14 15 14 14 14 14 13 14 14 13 11 10 9 10 8 9 11 12 12 12 12 11 14 11 11 12 13 14
7 6 4 4 6 6 9 9 10 11 11 12 13 14 15 15 15 13 14 14 14 14 14 14 13 13 9 9 10 11 8 9 14 5 11 15 10 10 12 11 8 11 11
9 7 4 4 5 5 6 7 8 8 9 11 12 15 15 15 15 15 14 15 15 14 15 14 13 14 13 10 10 12 10 6 10 11 3 14 12 12 10 10 10 9 9
11 11 8 5 3 4 5 5 6 6 8 9 10 12 14 14 15 14 13 14 15 14 15 15 13 14 13 13 12 13 11 8 7 13 10 5 10 15 10 10 9 8 10
16 13 10 8 6 4 5 5 6 6 7 8 9 10 12 13 15 12 14 15 15 14 14 14 14 11 14 13 11 11 10 10 8 8 10 14 8 4 10 10 9 8 8
18 15 12 9 8 6 5 6 5 6 7 8 9 10 11 12 14 12 12 13 14 14 14 13 12 11 13 13 8 10 10 10 11 11 11 12 14 12 8 8 9 6 6
17 17 14 11 10 8 6 5 5 4 6 8 8 9 11 11 13 12 12 14 13 14 15 14 12 13 12 11 7 11 11 12 12 13 12 11 11 12 10 13 7 5 2
18 19 18 16 13 11 8 7 4 4 4 6 8 9 10 12 12 14 12 13 15 15 15 14 11 13 17 16 5 8 14 16 16 14 13 13 14 12 11 10 9 12 12
20 19 19 16 16 13 12 6 4 8 6 6 5 7 9 10 11 10 12 12 13 12 14 15 14 10 10 16 6 1 2 6 11 13 12 13 12 11 14 14 14 11 10
22 21 20 18 18 13 9 10 8 9 5 4 4 5 6 8 9 10 11 12 12 13 13 13 15 15 11 10 16 5 4 4 3 5 11 13 12 13 12 9 13 15 15
22 20 19 18 17 14 14 12 14 9 8 5 7 6 5 6 8 9 9 10 11 10 13 12 13 13 11 10 4 11 9 7 4 2 3 13 10 13 13 11 14 17 16
22 23 20 18 17 15 15 14 14 6 11 10 9 9 7 6 6 7 8 9 10 10 11 11 12 12 12 14 10 4 6 9 9 7 3 10 9 10 13 14 14 14 16
23 22 21 21 19 17 17 14 14 12 14 12 9 9 8 7 6 5 6 8 8 9 9 9 11 14 13 13 11 12 11 6 6 5 2 4 8 5 7 11 13 14 15
Wind_Direction
43 67 29 23 21 20 20 22 23 23 23 19 19 21 26 30 25 27 35 38 52 64 69 68 67 66 65 62 61 62 57 61 71 81 72 58 56 56 57 58 59 64 68
50 50 36 24 23 22 22 24 25 24 22 23 20 18 26 30 28 26 33 41 60 69 71 69 69 69 67 64 58 55 51 43 57 83 67 71 55 59 60 58 62 65 71
44 53 33 25 23 24 23 24 27 27 27 25 23 16 26 30 32 30 33 38 43 71 81 82 75 74 68 66 62 52 43 24 15 359 93 85 63 62 65 67 67 66 68
50 58 29 27 24 23 25 25 27 26 26 28 27 18 24 29 33 34 34 35 37 42 85 80 78 75 72 66 60 49 35 14 11 37 41 76 69 64 65 65 67 66 64
55 53 31 31 27 26 24 25 26 26 27 28 27 27 23 25 32 36 35 35 33 39 60 79 78 78 72 68 56 39 28 4 2 78 59 57 67 67 63 67 66 69 70
63 50 41 31 29 27 25 25 25 26 28 29 26 25 22 27 30 36 36 31 31 35 38 62 75 82 78 69 56 37 21 16 57 86 74 63 64 71 67 70 80 73 69
61 52 49 32 30 28 26 25 24 24 27 28 27 25 24 24 30 34 34 36 32 34 33 33 75 88 84 75 56 35 18 15 52 89 80 59 67 73 74 72 64 72 67
58 52 50 30 30 31 29 23 22 22 25 27 26 24 25 27 30 32 33 34 36 38 35 32 36 71 81 75 57 28 15 16 55 95 94 84 72 71 81 68 72 68 70
57 53 40 42 25 25 26 23 22 21 23 25 26 23 23 27 30 33 31 32 36 36 39 35 32 29 74 85 68 25 352 7 36 84 94 83 84 80 74 64 76 68 71
65 60 47 30 33 15 33 22 22 20 22 22 22 23 24 22 19 29 28 28 33 37 37 38 36 31 40 71 71 358 330 333 310 90 87 81 87 84 71 71 74 72 72
92 51 53 38 26 1 44 21 18 20 20 22 18 11 12 20 7 13 17 22 24 28 38 35 33 31 31 31 56 326 312 316 70 97 94 85 79 76 80 79 66 70 73
78 80 45 42 26 9 39 10 18 23 17 22 22 3 358 20 15 17 13 18 17 15 21 32 31 27 25 13 3 329 323 306 90 105 96 90 92 89 82 78 77 79 74
102 71 49 43 39 30 14 25 24 31 17 20 21 10 359 12 11 18 16 12 15 11 4 3 19 21 21 7 8 352 337 355 91 118 111 91 108 90 71 84 92 88 75
126 95 66 40 43 32 25 33 30 26 24 19 22 17 6 9 9 15 15 17 16 9 3 353 2 357 16 20 14 359 2 8 13 121 114 101 110 97 101 91 94 91 92
143 129 91 63 56 30 41 28 34 21 17 20 27 17 14 4 6 11 13 17 15 6 356 353 355 350 359 29 36 18 358 13 13 45 122 110 112 97 117 109 109 105 104
153 149 121 84 64 53 53 52 44 28 16 23 21 22 16 9 359 7 15 16 7 0 356 352 357 351 12 4 48 43 17 20 25 22 114 122 113 115 118 102 111 100 103
158 152 155 138 103 85 64 50 73 34 36 32 22 29 15 13 359 11 16 13 358 1 5 356 7 19 7 5 25 44 30 22 40 40 25 54 124 127 123 107 110 111 99
157 164 168 149 145 122 92 62 58 41 50 37 33 30 21 14 4 15 19 7 355 10 13 3 9 17 16 10 11 41 35 36 45 43 47 45 44 103 132 107 97 105 92
157 166 162 153 157 141 124 99 83 57 55 45 42 30 26 14 12 17 21 8 5 19 18 10 10 27 22 358 40 54 45 46 41 50 45 55 53 50 71 88 90 102 98
162 157 164 168 160 158 146 142 122 110 81 61 41 33 31 22 18 17 22 16 15 23 21 16 16 31 27 352 13 64 58 50 42 46 45 42 43 54 67 67 61 58 122
166 165 167 167 166 164 168 168 172 129 103 76 57 36 30 28 15 25 23 22 17 31 24 21 15 36 26 8 66 69 77 69 58 49 48 46 43 34 39 43 39 27 7
175 173 170 171 170 178 185 189 132 128 93 102 87 55 39 35 25 29 29 31 26 32 28 26 29 37 46 33 44 353 113 82 52 60 51 48 44 45 47 35 42 40 23
180 178 177 175 171 181 163 127 108 103 112 134 127 76 47 48 34 32 32 36 36 36 32 31 29 38 54 37 47 52 66 76 333 68 56 48 44 41 33 37 54 42 41
183 176 177 170 170 170 153 158 164 168 161 152 134 123 83 63 49 34 39 44 48 45 42 34 27 42 58 52 38 29 58 55 59 108 68 36 33 40 28 30 51 45 37
175 175 174 168 169 167 170 179 185 181 142 137 139 136 129 100 76 57 50 47 52 50 48 49 42 45 61 74 60 27 22 49 30 36 5 1 359 16 17 61 56 45 33
172 170 171 171 175 170 178 185 186 164 150 155 163 158 149 131 106 78 75 72 60 58 53 53 53 48 53 62 76 63 60 60 39 32 15 337 335 332 7 71 60 47 35